User: anonymous   Login
Location: Fort Wayne
(41.1310°N, 85.1290°W)
Time: 19:00:14
(UTC-05:00)
Language:

Iridium 37 - Orbit

View from above orbital plane
View from above orbital plane
View from above satellite
View from above satellite

Ground track
Ground track

The orbit data is extracted from the following two-line orbital elements,

1 24968U 97056D   18020.95903938  .00013566 -12665-5  43096-4 0  9996
2 24968  86.3776 227.3552 0366093 160.8684 200.6747 15.31075549 63807
Epoch (UTC): 20 January 2018 23:01:01
Eccentricity: 0.0366093
inclination: 86.3776°
perigee height: 222 km
apogee height: 723 km
right ascension of ascending node: 227.3552°
argument of perigee: 160.8684°
revolutions per day: 15.31075549
mean anomaly at epoch: 200.6747°
orbit number at epoch: 6380

The dashed part of the orbit path shows where the satellite is in the earth's shadow,  

DLR